Huron, SD

12:42 PM CDT on May 28, 2017 (GMT -0500)
Huron Regional

Weather History for KHON - March, 2013

Change the Weather History Date:

Wednesday, March 6, 2013

  Actual Average Record
Temperature  
Mean Temperature 20 °F 29 °F  
Max Temperature 25 °F 39 °F 79 °F (1987)
Min Temperature 14 °F 19 °F -17 °F (1989)
Degree Days  
Heating Degree Days 45 36  
Month to date heating degree days 257 223  
Since 1 July heating degree days 6083 6055  
Cooling Degree Days 0 0  
Month to date cooling degree days 0 0  
Year to date cooling degree days 0 0  
Moisture  
Dew Point 14 °F    
Average Humidity 81    
Maximum Humidity 89    
Minimum Humidity 69    
Precipitation  
Precipitation T in 0.03 in 0.92 in (1983)
Month to date precipitation 0.02 0.19  
Year to date precipitation 1.40 1.29  
Snow  
Snow T in 0.30 in 8.80 in (1908)
Month to date snowfall 0.5 2.0  
Since 1 July snowfall 33.7 33.0  
Snow Depth 4.00 in    
Sea Level Pressure  
Sea Level Pressure 30.37 in    
Wind  
Wind Speed 8 mph (ESE)    
Max Wind Speed 17 mph    
Max Gust Speed 22 mph    
Visibility 9 miles    
Events Snow    
T = Trace of Precipitation, MM = Missing Value Source: NWS Daily Summary

Daily Weather History Graph

Daily Weather History Graph

Search for Another Location

Airport or City:

Trip Planner

Search our weather history database for the weather conditions in past years. The results will help you decide how hot, cold, wet, or windy it might be!

Date:

Astronomy

Mar. 06, 2013 Rise Set
Actual Time 7:00 AM CST 6:27 PM CST
Civil Twilight 6:31 AM CST 6:56 PM CST
Nautical Twilight 5:58 AM CST 7:30 PM CST
Astronomical Twilight 5:24 AM CST 8:04 PM CST
Moon 3:21 AM CST (3/6) 1:01 PM CST (3/6)
Length of Visible Light 12h 24m
Length of Day
11h 26m
Waning Crescent, 29% of the Moon is Illuminated
Mar 6
Waning Crescent
Mar 11
New
Mar 19
First Quarter
Mar 27
Full
Apr 2
Last Quarter

Hourly Weather History & Observations

Time (CST) Temp. Windchill Dew Point Humidity Pressure Visibility Wind Dir Wind Speed Gust Speed Precip Events Conditions
12:55 AM 16.0 °F 6.3 °F 12.0 °F 84% 30.48 in 10.0 mi NNW 6.9 mph - N/A   Overcast
1:55 AM 16.0 °F 10.4 °F 12.0 °F 84% 30.49 in 10.0 mi NNW 3.5 mph - N/A   Overcast
2:55 AM 16.0 °F - 12.0 °F 84% 30.48 in 10.0 mi Calm Calm - N/A   Overcast
3:55 AM 15.1 °F 6.4 °F 10.9 °F 84% 30.46 in 10.0 mi North 5.8 mph - N/A   Overcast
4:55 AM 15.1 °F 9.4 °F 10.9 °F 84% 30.47 in 9.0 mi ENE 3.5 mph - N/A   Overcast
5:55 AM 15.1 °F 6.4 °F 10.9 °F 84% 30.47 in 9.0 mi East 5.8 mph - N/A   Overcast
6:21 AM 15.8 °F - 10.4 °F 79% 30.41 in 10.0 mi Calm Calm - N/A   Overcast
6:55 AM 14.0 °F 6.5 °F 10.9 °F 88% 30.48 in 10.0 mi ESE 4.6 mph - N/A   Overcast
7:55 AM 14.0 °F - 10.9 °F 88% 30.48 in 3.0 mi Calm Calm - 0.00 in Snow Light Snow
8:08 AM 14.0 °F 5.1 °F 10.4 °F 86% 30.41 in 2.5 mi East 5.8 mph - 0.00 in Snow Light Snow
8:55 AM 15.1 °F 6.4 °F 10.9 °F 84% 30.48 in 2.5 mi ESE 5.8 mph - 0.00 in Snow Light Snow
9:03 AM 15.8 °F - 10.4 °F 79% 30.41 in 3.0 mi Calm Calm - 0.00 in Snow Light Snow
9:55 AM 15.1 °F 6.4 °F 10.9 °F 84% 30.47 in 7.0 mi Variable 5.8 mph - 0.00 in   Overcast
10:55 AM 17.1 °F 6.6 °F 12.0 °F 81% 30.46 in 6.0 mi SE 8.1 mph - N/A   Haze
11:55 AM 18.0 °F 6.9 °F 12.9 °F 81% 30.44 in 9.0 mi SE 9.2 mph - N/A   Overcast
12:55 PM 19.9 °F 9.3 °F 15.1 °F 81% 30.42 in 10.0 mi SE 9.2 mph - N/A   Overcast
1:55 PM 21.9 °F 11.7 °F 16.0 °F 78% 30.37 in 10.0 mi SSE 9.2 mph - N/A   Overcast
2:55 PM 23.0 °F 10.1 °F 17.1 °F 78% 30.34 in 10.0 mi ESE 15.0 mph - N/A   Mostly Cloudy
3:17 PM 23.0 °F 11.7 °F 17.6 °F 80% 30.26 in 10.0 mi SE 11.5 mph - N/A   Scattered Clouds
3:47 PM 24.8 °F 12.9 °F 17.6 °F 74% 30.25 in 10.0 mi ESE 13.8 mph - N/A   Mostly Cloudy
3:55 PM 24.1 °F 13.1 °F 18.0 °F 77% 30.31 in 10.0 mi SE 11.5 mph 19.6 mph N/A   Mostly Cloudy
4:17 PM 24.8 °F 13.4 °F 17.6 °F 74% 30.23 in 10.0 mi SE 12.7 mph - N/A   Scattered Clouds
4:55 PM 25.0 °F 13.6 °F 19.0 °F 78% 30.28 in 10.0 mi SE 12.7 mph - N/A   Clear
5:55 PM 25.0 °F 14.2 °F 19.9 °F 81% 30.26 in 10.0 mi SE 11.5 mph - N/A   Clear
6:55 PM 23.0 °F 11.1 °F 19.0 °F 85% 30.26 in 10.0 mi ESE 12.7 mph - N/A   Clear
7:55 PM 21.0 °F 9.3 °F 17.1 °F 85% 30.27 in 10.0 mi SE 11.5 mph - N/A   Clear
8:55 PM 21.0 °F 9.9 °F 17.1 °F 85% 30.28 in 10.0 mi SE 10.4 mph - N/A   Clear
9:55 PM 19.9 °F 6.7 °F 17.1 °F 89% 30.27 in 10.0 mi ESE 13.8 mph - N/A   Clear
10:55 PM 21.0 °F 8.6 °F 17.1 °F 85% 30.26 in 10.0 mi SE 12.7 mph - N/A   Clear
11:55 PM 21.0 °F 8.6 °F 17.1 °F 85% 30.25 in 10.0 mi SE 12.7 mph - N/A   Clear